Погода в Тернополе

Хотите узнать прогноз погоды в Тернополе? Тогда Вам сюда: Погода в Тернополе

Поиск расширенной информации на нашем сайте:

Полезная информация:

Новости сайта



02.01.2020
Опубликован Долгосрочный прогноз погоды по городам России и ближнего зарубежья на январь 2020 года.
Карты: Прогноз на январь и февраль 2020 года, Сравнение прогнозируемой аномалии приземной температуры воздуха на январь 2020 года по разным моделям.




Погода в Тернополе - сегодня

Время (UTC), дата Ветер
(°,м/с) 
Видим.   Явления Облачность Т
(°С)
Тd
(°С)
f(%) Тe
(°С)
Pmin
(гПа)
dP
(гПа)
Po
(мм)
O2
(г/м3)
Тmin Tmax R s Состояние
почвы
15 27.03.20 100 (В) 20000 м    1/1 1000 м 
[Cu hum]
+14.4 -7.1 22 +14  1022.4  -2  738  283           
18 27.03.20 050 (СВ) 10 км    1/0 средняя 
[Ac cuf]
+9.3 -6.7 32 +10  1023.1  738  288           
21 27.03.20 тихо ()   10 км    1/0 верхняя 
[Ci fib]
+5.9 -5.7 43 +6  1022.9  -0.7  737  291           
00 28.03.20 360 (С) 10 км    8/0 средняя 
[As trans]
+3.4 -5.5 52 +3  1021.7  -1.5  736  293           
03 28.03.20 010 (С) 10 км    9/0 средняя 
[As trans]
+3.5 -4.5 56 +4  1020.2  -1.4  735  293           
06 28.03.20 350 (С) 4000 м  мгла  10/0 средняя 
[Ac As]
+5.5 -4.3 49 +5  1018.8  -1.1  734  290  +2.4         
09 28.03.20 030 (СВ) 10 км    8/0 средняя, верхняя 
[Ac trans|Ci fib]
+12.5 -2.4 35 +12  1016.5  -1.2  733  283           
12 28.03.20 040 (СВ) 10 км    8/0 средняя, верхняя 
[Ac trans|Ci fib]
+15.1 -2.7 29 +15  1013.8  -2.3  731  280           
15 28.03.20 160 (Ю) 10 км    9/0 верхняя 
[Ci fib]
+15 -4.1 26 +16  1011.8  -1.9  730  279           
18 28.03.20 тихо ()   10 км    9/0 средняя, верхняя 
[Ac trans|Ci fib]
+11.6 -3.5 35 +12  1011.9  -0.4  730  282    +15.6       
21 28.03.20 тихо ()   10 км    8/0 верхняя 
[Ci fib]
+8.3 -2.6 46 +8  1011.6  -0.7  729  285           
00 29.03.20 тихо ()   10 км    9/0 верхняя 
[Ci fib]
+4.4 -3.9 55 +4  1010.9  -1.2  728  289           
03 29.03.20 тихо ()   10 км    6/0 верхняя 
[Ci fib]
+0.8 -4 70 +1  1010.3  -1.1  728  293           
06 29.03.20 тихо ()   10 км    4/0 верхняя 
[Ci fib]
+1.4 -2 78 +1  1010  -0.2  727  292  +0.6  +0.3      сухая 
09 29.03.20 300 (СЗ) 10 км    8/0 средняя, верхняя 
[Ac trans|Ci fib]
+13.7 +0.1 39 +13  1007.6  -0.6  727  279           
12 29.03.20 340 (С) 10 км    5/3 600 м средняя 
[Cu hum|Ac trans]
+15.9 -2.2 29 +16  1006.1  -1.2  726  277           
15 29.03.20 340 (С) 10 км    9/4 1000 м средняя 
[Sc|Ac trans]
+14.8 -1.2 33 +15  1006  -0.2  726  277           
18 29.03.20 300 (СЗ) 10 км    6/0 средняя 
[Ac trans]
+9.6 -2.7 42 +9  1007.7  0.9  727  283    +16       
21 29.03.20 290 (З) 10 км    6/0 средняя 
[Ac trans]
+7.6 -3.2 46 +6  1008.6  0.6  727  285           
00 30.03.20 310 (СЗ) 10 км    10/0 средняя 
[As op]
+7.2 -2.1 52 +5  1009.4  0.8  728  286           
03 30.03.20 330 (СЗ) 10 км    9/0 средняя 
[Ac trans]
+3 -0.2 79 1012.1  729  291           
06 30.03.20 320 (СЗ) 10 км  {дождь}  10/10 200 м 
[St]
+1.4 -0.8 85 -2  1013.9  1.5  730  293  +1.3    0.0     
09 30.03.20 330 (СЗ) 10 км  слаб. ливневой снег  10/8 480 м кучево-дожд., средняя 
[Cb cap|Ac und]
+0.2 -1.8 86 -4  1016.3  2.1  732  295           
12 30.03.20 320 (СЗ) 2000 м  слаб. ливневой снег  10/10 450 м кучево-дожд. 
[Cb cap]
-0.4 -1.9 90 -4  1017.2  0.8  732  296           
15 30.03.20 320 (СЗ) 4000 м  слаб. ливневой снег  10/10 270 м кучево-дожд. 
[Cb cap]
-1.7 -2.8 92 -6  1018.7  1.2  733  298           
Время (UTC), дата Ветер
(°,м/с) 
Видим.   Явления Облачность Т
(°С)
Тd
(°С)
f(%) Тe
(°С)
Pmin
(гПа)
dP
(гПа)
Po
(мм)
O2
(г/м3)
Тmin Tmax R s Состояние
почвы

Для получения пояснительной информации подведите курсор к названию столбца.

ПОГОДА в Тернополе - архив

Всё, что Вы хотите узнать о погоде в Тернополе - удобно и подробно!

Выберите нужную дату (начиная с 1 января 2019* года) и нажмите кнопку "Найти".
Будут отображены архивные сводки погоды по пункту Тернополь, начиная с указанной даты.


Отображать данные в формате CSV (для использования в таблицах Excel)


Внимание! Наш архив погоды предназначен исключительно для личного некоммерческого использования в познавательных целях. Если Вам необходимы официальные справки о состоянии погоды (для производственных, юридических, коммерческих и т.п. целей), обращайтесь в органы Росгидромета.

*Примечание: данная дата относится к архиву по метеостанциям СССР (Россия, СНГ, Балтия).
Архив по метеостанциям Зарубежной Европы и Азии (кроме Китая) хранится 10 дней, по другим регионам земного шара (Китай, Африка, Америка, Австралия, Океания) - 1 день.

Тернополь - район местоположения метеостанции


Название, широта, долгота, высота метеостанции:
Тернополь 49.5°ш. 25.7°д. 329 м над ур. моря [Украина]

Дополнительная информация

В oтличие oт бoльшинства пoгoдных сайтoв мы публикуем пoдрoбную метеoинфoрмацию в детальнoм прoфессиoнальнoм фoрмате.

Характеристики температуры и влажнoсти вoздуха измеряются на высoте 2 м в тени вдали oт зданий и деревьев.
Скoрoсть ветра измеряется на высoте 10 м (на урoвне рoста челoвека скoрoсть ветра ниже в 1.5-2 раза). Если метеoстанция нахoдится в гoрoде или в лесу, тo скoрoсть ветра занижена на 2-4 м/с пo сравнению с oткрытым местoм. Скoрoсть ветра над акватoриями крупных рек и oзёр, а также на вершинах хoлмoв на 2-5 м/с выше, чем в oбычных услoвиях.
Атмoсфернoе давление в разных тoчках местнoсти мoжет значительнo oтличаться oт давления на метеoстанции, в зависимoсти oт услoвий рельефа (при пoдъёме на 10 м давление пoнижается примернo на 1 мм рт.ст.).